Location: Wheeling
(40.0640°N, 80.7210°W)
Time: 13:36:26
(UTC-05:00)

ITAMSAT 1 - Pass Details

Date: 25 October 2021
Orbit: 784 x 796 km, 98.9° (Epoch: 01 December)

Event Time Altitude Azimuth Distance (km) Brightness Sun altitude
Rises 20:17:55 0° 182° (S) 3,258 10.9 -21.5°
Reaches altitude 10° 20:20:19 10° 188° (S) 2,334 10.2 -22.0°
Maximum altitude 20:25:14 45° 260° (W) 1,067 8.7 -22.9°
Drops below altitude 10° 20:30:12 10° 333° (NNW) 2,355 10.5 -23.9°
Sets 20:32:38 0° 340° (NNW) 3,289 11.2 -24.3°
